Location: Seattle
(47.6064°N, 122.3308°W)
Time: 02:01:15
(UTC-08:00)

A-11 Canister half - Pass Details

Date: 27 November 2020
Orbit: 1524 x 1684 km, 47.3° (Epoch: 21 January)

Event Time Altitude Azimuth Distance (km) Brightness Sun altitude
Rises 13:39:54 0° 291° (WNW) 4,852 11.7 17.3°
Reaches altitude 10° 13:43:44 10° 279° (W) 3,836 11.4 17.0°
Maximum altitude 13:51:08 25° 229° (SW) 2,754 11.9 16.5°
Drops below altitude 10° 13:58:22 10° 178° (S) 3,729 12.2 15.9°
Sets 14:02:03 0° 166° (SSE) 4,690 12.3 15.6°
